Location: Chrząstowo
(52.0654°N, 17.1290°E)
Time: 01:05:03
(UTC+01:00)

ISS - Pass Details

Date: 27 January 2019
Orbit: 403 x 411 km, 51.6° (Epoch: 20 February)

Event Time Altitude Azimuth Distance (km) Brightness Sun altitude
Rises 18:22:05 0° 242° (WSW) 2,331 1.4 -17.1°
Reaches altitude 10° 18:24:11 10° 237° (WSW) 1,474 0.0 -17.4°
Maximum altitude 18:27:24 52° 160° (SSE) 518 -3.5 -17.9°
Enters shadow 18:27:46 49° 133° (SE) 542 -3.5 -18.0°
